EJA823 KLAX-KSAN

Flight info

Callsign EJA823
Flight time 0h 43m
Altitude 13000
Route LAXX1 MZB
Aircraft C700/M-SBDGHM1RWXY/LB2

Departure

Time 2026-04-21 08:24
Airport Los Angeles International Airport (KLAX)

Arrival

Time 2026-04-21 09:07
Airport San Diego International Airport (KSAN)
Time Latitude Longitude Altitude Speed Heading
2026-04-21 08:00 33.93335 -118.39719 87 ft 0 kts 104°
2026-04-21 08:16 33.93333 -118.39717 78 ft 0 kts 140°
2026-04-21 08:17 33.93330 -118.39718 79 ft 1 kts 178°
2026-04-21 08:17 33.93327 -118.39728 87 ft 4 kts 263°
2026-04-21 08:17 33.93357 -118.39800 89 ft 15 kts 304°
2026-04-21 08:17 33.93411 -118.39857 90 ft 0 kts 323°
2026-04-21 08:18 33.93415 -118.39857 90 ft 0 kts 358°
2026-04-21 08:18 33.93420 -118.39865 87 ft 2 kts 264°
2026-04-21 08:19 33.93400 -118.39831 90 ft 12 kts 78°
2026-04-21 08:19 33.93446 -118.39815 89 ft 8 kts 27°
2026-04-21 08:19 33.93465 -118.39727 91 ft 16 kts 83°
2026-04-21 08:19 33.93482 -118.39570 90 ft 25 kts 83°
2026-04-21 08:20 33.93497 -118.39401 98 ft 28 kts 84°
2026-04-21 08:20 33.93538 -118.39186 91 ft 29 kts 85°
2026-04-21 08:20 33.93536 -118.38964 89 ft 27 kts 81°
2026-04-21 08:20 33.93562 -118.38763 87 ft 21 kts 82°
2026-04-21 08:21 33.93564 -118.38744 87 ft 1 kts 83°
2026-04-21 08:21 33.93593 -118.38602 88 ft 14 kts 87°
2026-04-21 08:21 33.93606 -118.38340 88 ft 16 kts 76°
2026-04-21 08:21 33.93630 -118.38284 90 ft 5 kts 33°
2026-04-21 08:22 33.93646 -118.38279 92 ft 0 kts
2026-04-21 08:22 33.93660 -118.38278 90 ft 7 kts 352°
2026-04-21 08:22 33.93718 -118.38320 91 ft 14 kts 282°
2026-04-21 08:22 33.93723 -118.38419 92 ft 0 kts 258°
2026-04-21 08:23 33.93706 -118.38556 92 ft 59 kts 263°
2026-04-21 08:24 33.93638 -118.39149 97 ft 133 kts 258°
2026-04-21 08:24 33.93445 -118.40342 716 ft 178 kts 259°
2026-04-21 08:24 33.93208 -118.41985 1822 ft 215 kts 261°
2026-04-21 08:24 33.92956 -118.43876 2927 ft 250 kts 261°
2026-04-21 08:25 33.92572 -118.45976 3134 ft 266 kts 248°
2026-04-21 08:25 33.91486 -118.47777 4824 ft 268 kts 221°
2026-04-21 08:25 33.89835 -118.48768 6713 ft 276 kts 192°
2026-04-21 08:25 33.87919 -118.48628 8679 ft 282 kts 164°
2026-04-21 08:26 33.86240 -118.47329 10729 ft 290 kts 139°
2026-04-21 08:26 33.84857 -118.45395 11918 ft 328 kts 133°
2026-04-21 08:26 33.83691 -118.42877 11948 ft 369 kts 112°
2026-04-21 08:26 33.83100 -118.39796 11965 ft 384 kts 105°
2026-04-21 08:27 33.82603 -118.36614 11952 ft 389 kts 103°
2026-04-21 08:27 33.82210 -118.33406 12306 ft 384 kts 102°
2026-04-21 08:27 33.81824 -118.30301 12950 ft 407 kts 103°
2026-04-21 08:27 33.81344 -118.26962 12945 ft 394 kts 104°
2026-04-21 08:28 33.80869 -118.23741 12988 ft 397 kts 104°
2026-04-21 08:28 33.80418 -118.20478 12992 ft 396 kts 103°
2026-04-21 08:28 33.79979 -118.17216 12997 ft 395 kts 103°
2026-04-21 08:28 33.79516 -118.13899 12997 ft 397 kts 103°
2026-04-21 08:29 33.79045 -118.10664 12956 ft 396 kts 105°
2026-04-21 08:29 33.78243 -118.07534 12958 ft 389 kts 116°
2026-04-21 08:29 33.77020 -118.04651 12956 ft 385 kts 125°
2026-04-21 08:29 33.75425 -118.02082 12954 ft 384 kts 135°
2026-04-21 08:30 33.73555 -117.99822 12985 ft 379 kts 139°
2026-04-21 08:30 33.71668 -117.97602 12989 ft 379 kts 139°
2026-04-21 08:30 33.69783 -117.95364 12992 ft 382 kts 139°
2026-04-21 08:30 33.67897 -117.93132 12992 ft 380 kts 139°
2026-04-21 08:31 33.66017 -117.90914 12995 ft 379 kts 139°
2026-04-21 08:31 33.64145 -117.88711 12994 ft 381 kts 139°
2026-04-21 08:31 33.62236 -117.86460 12996 ft 382 kts 139°
2026-04-21 08:31 33.60339 -117.84221 12996 ft 381 kts 139°
2026-04-21 08:32 33.58450 -117.81998 12993 ft 380 kts 139°
2026-04-21 08:32 33.56563 -117.79776 12991 ft 380 kts 139°
2026-04-21 08:32 33.54668 -117.77549 12986 ft 382 kts 139°
2026-04-21 08:32 33.52739 -117.75287 12984 ft 382 kts 139°
2026-04-21 08:33 33.50867 -117.73086 12981 ft 381 kts 139°
2026-04-21 08:33 33.48977 -117.70860 12976 ft 381 kts 139°
2026-04-21 08:33 33.47079 -117.68637 12964 ft 382 kts 139°
2026-04-21 08:33 33.45173 -117.66413 12969 ft 384 kts 139°
2026-04-21 08:34 33.43261 -117.64173 12971 ft 383 kts 139°
2026-04-21 08:34 33.41364 -117.61947 12973 ft 381 kts 139°
2026-04-21 08:34 33.39461 -117.59723 12977 ft 384 kts 139°
2026-04-21 08:34 33.37553 -117.57497 12979 ft 383 kts 139°
2026-04-21 08:35 33.35649 -117.55271 12982 ft 381 kts 139°
2026-04-21 08:35 33.33747 -117.53051 12985 ft 382 kts 139°
2026-04-21 08:35 33.31838 -117.50826 12988 ft 384 kts 139°
2026-04-21 08:35 33.29929 -117.48601 12991 ft 383 kts 139°
2026-04-21 08:36 33.28029 -117.46387 12986 ft 381 kts 138°
2026-04-21 08:36 33.26117 -117.44171 12994 ft 383 kts 139°
2026-04-21 08:36 33.24015 -117.42239 12974 ft 380 kts 150°
2026-04-21 08:36 33.21679 -117.40784 12973 ft 377 kts 159°
2026-04-21 08:37 33.19220 -117.39732 12976 ft 375 kts 163°
2026-04-21 08:37 33.16784 -117.38712 12717 ft 362 kts 162°
2026-04-21 08:37 33.14468 -117.37726 12433 ft 348 kts 162°
2026-04-21 08:37 33.12198 -117.36770 12152 ft 346 kts 163°
2026-04-21 08:38 33.09918 -117.35817 11875 ft 333 kts 162°
2026-04-21 08:38 33.08018 -117.35007 11553 ft 264 kts 163°
2026-04-21 08:38 33.06378 -117.34318 11242 ft 240 kts 163°
2026-04-21 08:38 33.04846 -117.33684 10957 ft 229 kts 164°
2026-04-21 08:39 33.03362 -117.33068 10668 ft 223 kts 163°
2026-04-21 08:39 33.01923 -117.32458 10410 ft 221 kts 163°
2026-04-21 08:39 33.00477 -117.31850 10154 ft 220 kts 163°
2026-04-21 08:39 32.99000 -117.31234 9922 ft 245 kts 163°
2026-04-21 08:40 32.97306 -117.30531 9694 ft 268 kts 163°
2026-04-21 08:40 32.95500 -117.29770 9441 ft 281 kts 162°
2026-04-21 08:40 32.93650 -117.28990 9172 ft 281 kts 162°
2026-04-21 08:40 32.91818 -117.28223 8899 ft 279 kts 163°
2026-04-21 08:41 32.89991 -117.27459 8630 ft 276 kts 163°
2026-04-21 08:41 32.88185 -117.26704 8358 ft 275 kts 163°
2026-04-21 08:41 32.86369 -117.25945 8026 ft 277 kts 163°
2026-04-21 08:41 32.84552 -117.25186 7688 ft 276 kts 163°
2026-04-21 08:42 32.82916 -117.24020 7325 ft 280 kts 136°
2026-04-21 08:42 32.81982 -117.21982 6990 ft 284 kts 112°
2026-04-21 08:42 32.81561 -117.20512 6772 ft 285 kts 110°
2026-04-21 08:42 32.80809 -117.17516 6305 ft 277 kts 108°
2026-04-21 08:43 32.80446 -117.16080 6068 ft 271 kts 109°
2026-04-21 08:43 32.79895 -117.14003 5992 ft 254 kts 109°
2026-04-21 08:43 32.79377 -117.12070 5981 ft 238 kts 109°
2026-04-21 08:43 32.78888 -117.10220 5979 ft 234 kts 109°
2026-04-21 08:44 32.78395 -117.08363 5985 ft 238 kts 109°
2026-04-21 08:44 32.77895 -117.06474 5986 ft 240 kts 109°
2026-04-21 08:44 32.77450 -117.04560 5883 ft 244 kts 107°
2026-04-21 08:44 32.76963 -117.02601 5513 ft 247 kts 108°
2026-04-21 08:45 32.76473 -117.00642 5191 ft 245 kts 107°
2026-04-21 08:45 32.76017 -116.98763 5181 ft 232 kts 107°
2026-04-21 08:45 32.75327 -116.97042 4996 ft 235 kts 131°
2026-04-21 08:45 32.74054 -116.95845 4727 ft 235 kts 155°
2026-04-21 08:46 32.72493 -116.95418 4426 ft 229 kts 181°
2026-04-21 08:46 32.70985 -116.95791 4074 ft 219 kts 205°
2026-04-21 08:46 32.69803 -116.96811 3982 ft 203 kts 227°
2026-04-21 08:46 32.69057 -116.98225 3924 ft 208 kts 248°
2026-04-21 08:47 32.68818 -116.99957 3570 ft 215 kts 272°
2026-04-21 08:47 32.69126 -117.01651 3230 ft 203 kts 287°
2026-04-21 08:47 32.69471 -117.02998 3215 ft 166 kts 286°
2026-04-21 08:47 32.69770 -117.04222 3154 ft 150 kts 286°
2026-04-21 08:48 32.70065 -117.05427 2783 ft 147 kts 286°
2026-04-21 08:48 32.70347 -117.06578 2440 ft 144 kts 286°
2026-04-21 08:48 32.70621 -117.07701 2158 ft 141 kts 285°
2026-04-21 08:48 32.70895 -117.08828 1938 ft 143 kts 285°
2026-04-21 08:49 32.71172 -117.09964 1716 ft 143 kts 285°
2026-04-21 08:49 32.71447 -117.11094 1479 ft 139 kts 285°
2026-04-21 08:49 32.71701 -117.12139 1250 ft 123 kts 286°
2026-04-21 08:49 32.71914 -117.13068 997 ft 112 kts 284°
2026-04-21 08:50 32.72118 -117.13898 931 ft 107 kts 286°
2026-04-21 08:50 32.72365 -117.14888 1384 ft 141 kts 286°
2026-04-21 08:50 32.72639 -117.16125 1906 ft 166 kts 284°
2026-04-21 08:50 32.72941 -117.17509 2381 ft 181 kts 284°
2026-04-21 08:51 32.73251 -117.19004 2658 ft 181 kts 285°
2026-04-21 08:51 32.73665 -117.20711 2641 ft 263 kts 286°
2026-04-21 08:51 32.74207 -117.22967 2565 ft 285 kts 286°
2026-04-21 08:51 32.75100 -117.24985 2407 ft 273 kts 311°
2026-04-21 08:52 32.76647 -117.26175 2254 ft 264 kts 342°
2026-04-21 08:52 32.78434 -117.26267 2101 ft 256 kts 13°
2026-04-21 08:52 32.80035 -117.25410 1954 ft 249 kts 35°
2026-04-21 08:52 32.81077 -117.23908 2186 ft 223 kts 60°
2026-04-21 08:53 32.81564 -117.22267 2489 ft 209 kts 90°
2026-04-21 08:53 32.81281 -117.20593 2805 ft 207 kts 106°
2026-04-21 08:53 32.80814 -117.18806 3018 ft 265 kts 107°
2026-04-21 08:53 32.80285 -117.16678 2989 ft 245 kts 105°
2026-04-21 08:54 32.79872 -117.14873 2976 ft 218 kts 105°
2026-04-21 08:54 32.79476 -117.13164 2980 ft 212 kts 105°
2026-04-21 08:54 32.79080 -117.11486 2984 ft 210 kts 105°
2026-04-21 08:54 32.78685 -117.09818 2982 ft 209 kts 105°
2026-04-21 08:55 32.78293 -117.08157 2981 ft 209 kts 105°
2026-04-21 08:55 32.77901 -117.06498 2983 ft 208 kts 105°
2026-04-21 08:55 32.77509 -117.04863 2975 ft 208 kts 106°
2026-04-21 08:55 32.77098 -117.03191 2973 ft 209 kts 106°
2026-04-21 08:56 32.76698 -117.01552 2975 ft 208 kts 106°
2026-04-21 08:56 32.76297 -116.99902 2973 ft 209 kts 106°
2026-04-21 08:56 32.75888 -116.98251 2973 ft 207 kts 109°
2026-04-21 08:56 32.75141 -116.96804 2977 ft 207 kts 134°
2026-04-21 08:57 32.73983 -116.95810 2975 ft 207 kts 156°
2026-04-21 08:57 32.72591 -116.95425 2976 ft 207 kts 179°
2026-04-21 08:57 32.71180 -116.95703 2973 ft 206 kts 201°
2026-04-21 08:57 32.69976 -116.96595 2972 ft 205 kts 224°
2026-04-21 08:58 32.69150 -116.97962 2971 ft 205 kts 246°
2026-04-21 08:58 32.68822 -116.99597 2968 ft 203 kts 268°
2026-04-21 08:58 32.69026 -117.01224 2974 ft 198 kts 287°
2026-04-21 08:58 32.69423 -117.02778 2971 ft 196 kts 286°
2026-04-21 08:59 32.69793 -117.04307 2967 ft 169 kts 286°
2026-04-21 08:59 32.70066 -117.05428 2840 ft 147 kts 286°
2026-04-21 08:59 32.70347 -117.06581 2582 ft 143 kts 286°
2026-04-21 08:59 32.70623 -117.07711 2354 ft 142 kts 285°
2026-04-21 09:00 32.70896 -117.08831 2115 ft 141 kts 285°
2026-04-21 09:00 32.71168 -117.09950 1887 ft 140 kts 285°
2026-04-21 09:00 32.71428 -117.11076 1526 ft 142 kts 284°
2026-04-21 09:00 32.71656 -117.12132 1171 ft 121 kts 285°
2026-04-21 09:01 32.71892 -117.13035 851 ft 110 kts 287°
2026-04-21 09:01 32.72103 -117.13854 675 ft 99 kts 289°
2026-04-21 09:01 32.72322 -117.14672 729 ft 112 kts 286°
2026-04-21 09:01 32.72512 -117.15551 659 ft 107 kts 284°
2026-04-21 09:02 32.72717 -117.16391 473 ft 106 kts 288°
2026-04-21 09:02 32.72730 -117.16438 457 ft 106 kts 287°
2026-04-21 09:02 32.72844 -117.16904 320 ft 104 kts 287°
2026-04-21 09:03 32.73386 -117.19241 1341 ft 413 kts 285°
2026-04-21 09:03 32.73963 -117.21773 1718 ft 244 kts 285°
2026-04-21 09:03 32.74372 -117.23381 1605 ft 183 kts 290°
2026-04-21 09:03 32.74969 -117.24693 1504 ft 179 kts 309°
2026-04-21 09:04 32.75872 -117.25703 1348 ft 178 kts 308°
2026-04-21 09:04 32.76268 -117.26985 1298 ft 153 kts 273°
2026-04-21 09:04 32.75805 -117.28053 1059 ft 146 kts 216°
2026-04-21 09:04 32.74895 -117.28403 938 ft 118 kts 179°
2026-04-21 09:05 32.74213 -117.27923 767 ft 143 kts 117°
2026-04-21 09:05 32.74323 -117.26906 814 ft 122 kts 65°
2026-04-21 09:05 32.74642 -117.25996 800 ft 115 kts 73°
2026-04-21 09:05 32.74714 -117.25069 702 ft 109 kts 92°
2026-04-21 09:06 32.74618 -117.24169 516 ft 112 kts 102°
2026-04-21 09:06 32.74427 -117.23314 488 ft 105 kts 104°
2026-04-21 09:06 32.74235 -117.22490 389 ft 104 kts 106°
2026-04-21 09:06 32.74035 -117.21674 266 ft 105 kts 106°
2026-04-21 09:07 32.73826 -117.20834 145 ft 108 kts 106°
2026-04-21 09:07 32.73623 -117.20000 35 ft 103 kts 106°
2026-04-21 09:07 32.73450 -117.19306 16 ft 67 kts 107°
2026-04-21 09:07 32.73359 -117.18953 17 ft 14 kts 105°
2026-04-21 09:08 32.73317 -117.18783 14 ft 26 kts 106°
2026-04-21 09:08 32.73266 -117.18572 20 ft 27 kts 105°
2026-04-21 09:08 32.73235 -117.18437 19 ft 13 kts 105°
2026-04-21 09:08 32.73231 -117.18420 21 ft 3 kts 105°
2026-04-21 09:09 32.73232 -117.18414 19 ft 2 kts 65°
2026-04-21 09:09 32.73293 -117.18440 19 ft 21 kts 356°
2026-04-21 09:09 32.73416 -117.18386 20 ft 20 kts
2026-04-21 09:09 32.73481 -117.18409 19 ft 0 kts 302°
2026-04-21 09:10 32.73482 -117.18409 19 ft 0 kts 299°
2026-04-21 09:10 32.73479 -117.18415 19 ft 2 kts 235°
2026-04-21 09:10 32.73452 -117.18397 20 ft 6 kts 146°
2026-04-21 09:10 32.73443 -117.18391 18 ft 9 kts 150°
2026-04-21 09:13 32.73428 -117.18382 18 ft 10 kts 155°
2026-04-21 09:13 32.73393 -117.18363 18 ft 13 kts 155°
2026-04-21 09:13 32.73349 -117.18328 19 ft 0 kts 135°
2026-04-21 09:14 32.73345 -117.18323 18 ft 6 kts 135°
2026-04-21 09:14 32.73319 -117.18292 17 ft 0 kts 135°
2026-04-21 09:14 32.73316 -117.18289 18 ft 1 kts 135°
2026-04-21 09:15 32.73312 -117.18284 18 ft 0 kts 135°
2026-04-21 09:16 32.73311 -117.18284 18 ft 1 kts 135°
2026-04-21 09:16 32.73295 -117.18242 17 ft 8 kts 104°
2026-04-21 09:17 32.73284 -117.18206 17 ft 11 kts 118°
2026-04-21 09:17 32.73276 -117.18154 18 ft 0 kts 114°
2026-04-21 09:20 32.73266 -117.18093 18 ft 0 kts 89°
2026-04-21 09:20 32.73266 -117.18089 18 ft 3 kts 91°
2026-04-21 09:20 32.73249 -117.18045 19 ft 14 kts 115°
2026-04-21 09:21 32.73236 -117.17958 16 ft 8 kts 97°
2026-04-21 09:21 32.73236 -117.17956 16 ft 0 kts 97°
2026-04-21 09:21 32.73237 -117.17953 16 ft 1 kts 69°
2026-04-21 09:22 32.73243 -117.17954 17 ft 1 kts 338°
2026-04-21 09:22 32.73257 -117.17964 17 ft 8 kts 331°
2026-04-21 09:23 32.73263 -117.17968 17 ft 9 kts 330°
2026-04-21 09:23 32.73295 -117.17989 19 ft 4 kts 330°
2026-04-21 09:24 32.73296 -117.17989 19 ft 0 kts 330°
2026-04-21 09:24 32.73324 -117.17965 20 ft 13 kts 37°
2026-04-21 09:24 32.73335 -117.17957 23 ft 0 kts 25°
2026-04-21 09:25 32.73384 -117.17930 19 ft 12 kts 26°
2026-04-21 09:25 32.73432 -117.17909 18 ft 0 kts 274°